| time (UTC) | temp F | wind direction | speed MPH | gust MPH | rain 1hr in | rain 24hr in | rain mn in | humidity % | barometer mb |
| 20260510101304 | 53 | 58 | 6.0 | 17.0 | 0.00 | 0.00 | 0.00 | 78 | 1015.0 |
| 20260510094804 | 53 | 61 | 8.0 | 21.0 | 0.00 | 0.00 | 0.00 | 79 | 1015.0 |
| 20260510092805 | 53 | 41 | 7.0 | 18.0 | 0.00 | 0.00 | 0.00 | 81 | 1015.0 |
| 20260510092306 | 52 | 62 | 6.0 | 17.0 | 0.00 | 0.00 | 0.00 | 83 | 1015.2 |
| 20260510091804 | 52 | 12 | 8.0 | 17.0 | 0.00 | 0.00 | 0.00 | 84 | 1015.2 |
| 20260510091304 | 52 | 35 | 9.0 | 16.0 | 0.00 | 0.00 | 0.00 | 84 | 1015.2 |
| 20260510085805 | 51 | 43 | 6.0 | 17.0 | 0.00 | 0.00 | 0.00 | 86 | 1015.3 |
| 20260510085306 | 51 | 39 | 7.0 | 14.0 | 0.00 | 0.00 | 0.00 | 86 | 1015.3 |
| 20260510083304 | 51 | 13 | 7.0 | 18.0 | 0.00 | 0.00 | 0.00 | 87 | 1015.5 |
| 20260510081304 | 50 | 12 | 6.0 | 13.0 | 0.00 | 0.00 | 0.00 | 87 | 1015.6 |
| 20260510080804 | 50 | 28 | 6.0 | 15.0 | 0.00 | 0.00 | 0.00 | 87 | 1015.6 |
| 20260510075805 | 50 | 31 | 6.0 | 12.0 | 0.00 | 0.00 | 0.00 | 87 | 1015.6 |
| 20260510075306 | 50 | 34 | 6.0 | 12.0 | 0.00 | 0.00 | 0.00 | 87 | 1015.5 |
| 20260510072804 | 50 | 35 | 5.0 | 12.0 | 0.00 | 0.00 | 0.00 | 87 | 1015.7 |
| 20260510071804 | 50 | 35 | 8.0 | 13.0 | 0.00 | 0.00 | 0.00 | 87 | 1015.8 |
| 20260510071304 | 50 | 46 | 4.0 | 14.0 | 0.00 | 0.00 | 0.00 | 87 | 1015.7 |
| 20260510070804 | 49 | 42 | 6.0 | 15.0 | 0.00 | 0.00 | 0.00 | 87 | 1015.7 |
| 20260510070304 | 49 | 54 | 7.0 | 14.0 | 0.00 | 0.00 | 0.00 | 87 | 1015.8 |
| 20260510065804 | 49 | 64 | 5.0 | 12.0 | 0.00 | 0.00 | 0.00 | 87 | 1015.8 |
| 20260510064804 | 49 | 56 | 6.0 | 13.0 | 0.00 | 0.00 | 0.00 | 87 | 1015.8 |
| 20260510062804 | 49 | 41 | 7.0 | 12.0 | 0.00 | 0.00 | 0.00 | 89 | 1015.8 |
| 20260510060804 | 48 | 40 | 6.0 | 12.0 | 0.00 | 0.00 | 0.00 | 89 | 1015.7 |
| 20260510055804 | 48 | 55 | 4.0 | 12.0 | 0.00 | 0.00 | 0.00 | 90 | 1015.7 |
| 20260510054304 | 48 | 43 | 5.0 | 12.0 | 0.00 | 0.00 | 0.00 | 90 | 1015.6 |
| 20260510053804 | 48 | 45 | 5.0 | 12.0 | 0.00 | 0.00 | 0.00 | 90 | 1015.6 |
| 20260510052804 | 47 | 39 | 6.0 | 12.0 | 0.00 | 0.00 | 0.00 | 90 | 1015.6 |
| 20260510052306 | 47 | 39 | 6.0 | 12.0 | 0.00 | 0.00 | 0.00 | 90 | 1015.7 |
| 20260510050804 | 47 | 34 | 5.0 | 12.0 | 0.00 | 0.00 | 0.00 | 90 | 1015.6 |
| 20260510050304 | 47 | 27 | 3.0 | 12.0 | 0.00 | 0.00 | 0.00 | 90 | 1015.7 |
| 20260510045804 | 47 | 21 | 6.0 | 13.0 | 0.00 | 0.00 | 0.00 | 90 | 1015.7 |
| 20260510045306 | 47 | 54 | 6.0 | 13.0 | 0.00 | 0.00 | 0.00 | 90 | 1015.6 |
| 20260510044804 | 47 | 44 | 5.0 | 12.0 | 0.00 | 0.00 | 0.00 | 90 | 1015.6 |
| 20260510043804 | 47 | 35 | 6.0 | 16.0 | 0.00 | 0.00 | 0.00 | 90 | 1015.5 |
| 20260510043304 | 47 | 29 | 5.0 | 13.0 | 0.00 | 0.00 | 0.00 | 90 | 1015.4 |
| 20260510042804 | 47 | 28 | 7.0 | 15.0 | 0.00 | 0.00 | 0.00 | 90 | 1015.4 |
| 20260510042306 | 47 | 26 | 6.0 | 14.0 | 0.00 | 0.00 | 0.00 | 90 | 1015.6 |
| 20260510041804 | 47 | 12 | 6.0 | 14.0 | 0.00 | 0.00 | 0.00 | 90 | 1015.6 |
| 20260510040804 | 48 | 30 | 7.0 | 16.0 | 0.00 | 0.00 | 0.00 | 90 | 1015.6 |
| 20260510035306 | 48 | 21 | 7.0 | 13.0 | 0.00 | 0.00 | 0.00 | 90 | 1015.8 |
| 20260510034304 | 48 | 40 | 7.0 | 13.0 | 0.00 | 0.00 | 0.00 | 90 | 1015.8 |
| 20260510033804 | 48 | 8 | 5.0 | 14.0 | 0.00 | 0.00 | 0.00 | 90 | 1015.8 |
| 20260510033305 | 48 | 16 | 5.0 | 13.0 | 0.00 | 0.00 | 0.00 | 90 | 1015.8 |
| 20260510032306 | 48 | 33 | 6.0 | 12.0 | 0.00 | 0.00 | 0.00 | 90 | 1015.9 |
| 20260510031304 | 49 | 38 | 4.0 | 10.0 | 0.00 | 0.00 | 0.00 | 90 | 1015.9 |
| 20260510030804 | 49 | 24 | 5.0 | 12.0 | 0.00 | 0.00 | 0.00 | 90 | 1015.9 |
| 20260510030304 | 49 | 32 | 5.0 | 10.0 | 0.00 | 0.00 | 0.00 | 90 | 1015.9 |
| 20260510025804 | 49 | 32 | 5.0 | 12.0 | 0.00 | 0.00 | 0.00 | 90 | 1015.9 |
| 20260510023805 | 49 | 48 | 5.0 | 12.0 | 0.00 | 0.00 | 0.00 | 89 | 1016.0 |
| 20260510022804 | 49 | 35 | 5.0 | 12.0 | 0.00 | 0.00 | 0.00 | 89 | 1016.0 |
| 20260510021304 | 50 | 23 | 5.0 | 10.0 | 0.00 | 0.00 | 0.00 | 88 | 1015.9 |
| 20260510020804 | 50 | 39 | 5.0 | 10.0 | 0.00 | 0.00 | 0.00 | 87 | 1015.9 |
| 20260510012804 | 51 | 53 | 4.0 | 9.0 | 0.00 | 0.00 | 0.00 | 82 | 1016.0 |
| 20260510011804 | 51 | 27 | 5.0 | 10.0 | 0.00 | 0.00 | 0.00 | 82 | 1016.0 |
| 20260510011304 | 51 | 58 | 5.0 | 12.0 | 0.00 | 0.00 | 0.00 | 82 | 1015.9 |
| 20260510010304 | 51 | 34 | 3.0 | 10.0 | 0.00 | 0.00 | 0.00 | 82 | 1016.0 |
| 20260510005306 | 51 | 43 | 5.0 | 12.0 | 0.00 | 0.00 | 0.00 | 81 | 1016.0 |
| 20260510004804 | 51 | 51 | 4.0 | 10.0 | 0.00 | 0.00 | 0.00 | 81 | 1016.0 |
| 20260510003304 | 51 | 45 | 5.0 | 10.0 | 0.00 | 0.00 | 0.00 | 79 | 1016.1 |
| 20260510002805 | 51 | 38 | 5.0 | 12.0 | 0.00 | 0.00 | 0.00 | 79 | 1016.1 |
| 20260510002306 | 51 | 41 | 5.0 | 12.0 | 0.00 | 0.00 | 0.00 | 78 | 1016.0 |
| 20260510001805 | 51 | 25 | 5.0 | 12.0 | 0.00 | 0.00 | 0.00 | 77 | 1016.0 |
| 20260510001304 | 51 | 46 | 5.0 | 10.0 | 0.00 | 0.00 | 0.00 | 76 | 1016.2 |
| 20260510000804 | 51 | 51 | 4.0 | 10.0 | 0.00 | 0.00 | 0.00 | 76 | 1016.2 |
| 20260510000304 | 51 | 46 | 5.0 | 10.0 | 0.00 | 0.00 | 0.00 | 75 | 1016.1 |
| 20260509234304 | 51 | 45 | 3.0 | 7.0 | 0.00 | 0.00 | 0.00 | 74 | 1016.1 |
| 20260509232804 | 52 | 41 | 2.0 | 10.0 | 0.00 | 0.00 | 0.00 | 73 | 1016.1 |
| 20260509232306 | 52 | 29 | 5.0 | 10.0 | 0.00 | 0.00 | 0.00 | 73 | 1016.3 |
| 20260509231805 | 52 | 12 | 3.0 | 8.0 | 0.00 | 0.00 | 0.00 | 73 | 1016.3 |
| 20260509230814 | 52 | 50 | 5.0 | 9.0 | 0.00 | 0.00 | 0.00 | 73 | 1016.3 |
| 20260509230305 | 52 | 357 | 4.0 | 9.0 | 0.00 | 0.00 | 0.00 | 73 | 1016.3 |
| 20260509225804 | 52 | 47 | 4.0 | 10.0 | 0.00 | 0.00 | 0.00 | 73 | 1016.3 |
| 20260509224804 | 52 | 42 | 4.0 | 10.0 | 0.00 | 0.00 | 0.00 | 71 | 1016.4 |
| 20260509223804 | 52 | 46 | 3.0 | 8.0 | 0.00 | 0.00 | 0.00 | 70 | 1016.4 |
| 20260509221804 | 52 | 47 | 4.0 | 9.0 | 0.00 | 0.00 | 0.00 | 68 | 1016.5 |
| 20260509221304 | 52 | 46 | 3.0 | 9.0 | 0.00 | 0.00 | 0.00 | 67 | 1016.4 |
| 20260509220804 | 52 | 43 | 3.0 | 9.0 | 0.00 | 0.00 | 0.00 | 67 | 1016.4 |
| 20260509220304 | 52 | 53 | 3.0 | 7.0 | 0.00 | 0.00 | 0.00 | 66 | 1016.4 |
| 20260509215306 | 52 | 13 | 4.0 | 9.0 | 0.00 | 0.00 | 0.00 | 65 | 1016.3 |
| 20260509214804 | 52 | 42 | 3.0 | 9.0 | 0.00 | 0.00 | 0.00 | 65 | 1016.3 |
| 20260509213804 | 52 | 35 | 3.0 | 8.0 | 0.00 | 0.00 | 0.00 | 64 | 1016.4 |
| 20260509212306 | 53 | 15 | 5.0 | 12.0 | 0.00 | 0.00 | 0.00 | 63 | 1016.2 |
| 20260509211304 | 53 | 32 | 5.0 | 10.0 | 0.00 | 0.00 | 0.00 | 63 | 1016.2 |
| 20260509210304 | 53 | 53 | 3.0 | 8.0 | 0.00 | 0.00 | 0.00 | 62 | 1016.2 |
| 20260509204304 | 53 | 36 | 4.0 | 9.0 | 0.00 | 0.00 | 0.00 | 61 | 1016.0 |
| 20260509202804 | 54 | 25 | 5.0 | 13.0 | 0.00 | 0.00 | 0.00 | 60 | 1015.9 |
| 20260509202306 | 54 | 45 | 4.0 | 10.0 | 0.00 | 0.00 | 0.00 | 60 | 1015.9 |
| 20260509201804 | 54 | 43 | 5.0 | 12.0 | 0.00 | 0.00 | 0.00 | 60 | 1015.9 |
| 20260509200804 | 54 | 37 | 5.0 | 10.0 | 0.00 | 0.01 | 0.00 | 62 | 1016.0 |
| 20260509200304 | 55 | 36 | 5.0 | 9.0 | 0.00 | 0.01 | 0.00 | 63 | 1015.9 |
| 20260509195804 | 55 | 14 | 4.0 | 9.0 | 0.00 | 0.01 | 0.00 | 62 | 1015.9 |
| 20260509194805 | 55 | 43 | 6.0 | 12.0 | 0.00 | 0.01 | 0.00 | 63 | 1015.9 |
| 20260509193305 | 56 | 36 | 4.0 | 12.0 | 0.00 | 0.01 | 0.00 | 63 | 1015.9 |
| 20260509192306 | 56 | 41 | 5.0 | 12.0 | 0.00 | 0.01 | 0.00 | 61 | 1015.7 |
| 20260509191304 | 56 | 50 | 6.0 | 14.0 | 0.00 | 0.01 | 0.00 | 61 | 1015.6 |
| 20260509190306 | 57 | 47 | 5.0 | 12.0 | 0.00 | 0.01 | 0.00 | 60 | 1015.5 |
| 20260509185804 | 57 | 42 | 4.0 | 12.0 | 0.00 | 0.01 | 0.00 | 59 | 1015.5 |
| 20260509183804 | 58 | 30 | 5.0 | 10.0 | 0.00 | 0.01 | 0.00 | 58 | 1015.4 |
| 20260509182804 | 59 | 36 | 4.0 | 12.0 | 0.00 | 0.01 | 0.00 | 58 | 1015.5 |
| 20260509182306 | 59 | 66 | 5.0 | 12.0 | 0.00 | 0.01 | 0.00 | 58 | 1015.5 |
| 20260509181304 | 60 | 42 | 4.0 | 9.0 | 0.00 | 0.01 | 0.00 | 59 | 1015.4 |
| 20260509180804 | 60 | 36 | 4.0 | 8.0 | 0.00 | 0.01 | 0.00 | 58 | 1015.4 |
| 20260509180304 | 60 | 58 | 5.0 | 10.0 | 0.00 | 0.01 | 0.00 | 58 | 1015.6 |
| 20260509175306 | 60 | 42 | 4.0 | 8.0 | 0.00 | 0.01 | 0.00 | 57 | 1015.7 |
| 20260509174805 | 60 | 53 | 5.0 | 12.0 | 0.00 | 0.01 | 0.00 | 56 | 1015.7 |
| 20260509174304 | 61 | 39 | 7.0 | 13.0 | 0.00 | 0.01 | 0.00 | 56 | 1015.4 |
| 20260509173804 | 61 | 47 | 4.0 | 12.0 | 0.00 | 0.01 | 0.00 | 57 | 1015.4 |
| 20260509173305 | 61 | 44 | 6.0 | 12.0 | 0.00 | 0.01 | 0.00 | 57 | 1015.2 |
| 20260509172804 | 61 | 48 | 5.0 | 9.0 | 0.00 | 0.01 | 0.00 | 56 | 1015.2 |
| 20260509172306 | 61 | 58 | 7.0 | 12.0 | 0.00 | 0.01 | 0.00 | 56 | 1015.2 |
| 20260509171304 | 63 | 50 | 5.0 | 16.0 | 0.00 | 0.01 | 0.00 | 57 | 1015.2 |
| 20260509170804 | 63 | 63 | 5.0 | 12.0 | 0.00 | 0.01 | 0.00 | 57 | 1015.2 |
| 20260509170304 | 63 | 62 | 3.0 | 9.0 | 0.00 | 0.01 | 0.00 | 57 | 1015.2 |
| 20260509164304 | 64 | 36 | 3.0 | 12.0 | 0.00 | 0.01 | 0.00 | 58 | 1015.3 |
| 20260509163804 | 64 | 39 | 5.0 | 12.0 | 0.00 | 0.01 | 0.00 | 58 | 1015.3 |
| 20260509163304 | 64 | 63 | 6.0 | 14.0 | 0.00 | 0.01 | 0.00 | 57 | 1015.3 |
| 20260509162804 | 64 | 39 | 6.0 | 15.0 | 0.00 | 0.01 | 0.00 | 57 | 1015.3 |
| 20260509161304 | 65 | 80 | 7.0 | 12.0 | 0.00 | 0.01 | 0.00 | 56 | 1015.3 |
| 20260509160304 | 65 | 16 | 5.0 | 10.0 | 0.00 | 0.01 | 0.00 | 56 | 1015.4 |
| 20260509155804 | 65 | 71 | 6.0 | 10.0 | 0.00 | 0.01 | 0.00 | 56 | 1015.4 |
| 20260509154804 | 66 | 45 | 6.0 | 13.0 | 0.00 | 0.01 | 0.00 | 56 | 1015.4 |
| 20260509153804 | 65 | 56 | 6.0 | 12.0 | 0.00 | 0.01 | 0.00 | 56 | 1015.5 |
| 20260509153304 | 65 | 51 | 7.0 | 12.0 | 0.00 | 0.01 | 0.00 | 56 | 1015.5 |
| 20260509152804 | 65 | 64 | 6.0 | 14.0 | 0.00 | 0.01 | 0.00 | 56 | 1015.5 |
| 20260509151804 | 66 | 36 | 6.0 | 12.0 | 0.00 | 0.01 | 0.00 | 55 | 1015.7 |
| 20260509151304 | 66 | 60 | 3.0 | 10.0 | 0.00 | 0.01 | 0.00 | 57 | 1015.7 |
| 20260509150304 | 66 | 57 | 6.0 | 14.0 | 0.00 | 0.01 | 0.00 | 56 | 1015.7 |
| 20260509144305 | 66 | 75 | 3.0 | 10.0 | 0.00 | 0.01 | 0.00 | 56 | 1015.5 |
| 20260509141804 | 66 | 87 | 6.0 | 13.0 | 0.00 | 0.01 | 0.00 | 56 | 1015.5 |
| 20260509141304 | 66 | 52 | 6.0 | 12.0 | 0.00 | 0.01 | 0.00 | 57 | 1015.3 |
| 20260509140804 | 66 | 35 | 4.0 | 14.0 | 0.00 | 0.01 | 0.00 | 57 | 1015.3 |
| 20260509134804 | 66 | 60 | 5.0 | 12.0 | 0.00 | 0.01 | 0.00 | 56 | 1015.4 |
| 20260509131804 | 66 | 27 | 5.0 | 13.0 | 0.00 | 0.01 | 0.00 | 57 | 1015.6 |
| 20260509131304 | 66 | 85 | 5.0 | 10.0 | 0.00 | 0.01 | 0.00 | 57 | 1015.6 |
| 20260509125307 | 66 | 58 | 6.0 | 13.0 | 0.00 | 0.01 | 0.00 | 58 | 1015.7 |
| 20260509124804 | 66 | 65 | 7.0 | 14.0 | 0.00 | 0.01 | 0.00 | 57 | 1015.7 |
| 20260509124304 | 66 | 49 | 6.0 | 12.0 | 0.00 | 0.01 | 0.00 | 57 | 1015.7 |
| 20260509123304 | 66 | 82 | 6.0 | 13.0 | 0.00 | 0.01 | 0.00 | 57 | 1015.9 |
| 20260509121304 | 65 | 101 | 5.0 | 12.0 | 0.00 | 0.01 | 0.00 | 54 | 1016.2 |
| 20260509115306 | 65 | 60 | 6.0 | 13.0 | 0.00 | 0.01 | 0.00 | 56 | 1016.3 |
| 20260509114804 | 65 | 78 | 5.0 | 10.0 | 0.00 | 0.01 | 0.00 | 57 | 1016.3 |
| 20260509113805 | 65 | 46 | 5.0 | 12.0 | 0.00 | 0.01 | 0.00 | 58 | 1016.3 |
| 20260509112306 | 65 | 93 | 3.0 | 10.0 | 0.00 | 0.01 | 0.00 | 59 | 1016.5 |
| 20260509110804 | 65 | 82 | 6.0 | 13.0 | 0.00 | 0.01 | 0.00 | 60 | 1016.6 |
| 20260509110305 | 65 | 126 | 4.0 | 10.0 | 0.00 | 0.01 | 0.00 | 61 | 1016.7 |
| 20260509105306 | 65 | 80 | 5.0 | 10.0 | 0.00 | 0.01 | 0.00 | 61 | 1016.8 |
| 20260509104304 | 64 | 88 | 4.0 | 14.0 | 0.00 | 0.01 | 0.00 | 61 | 1017.1 |
| 20260509102804 | 64 | 87 | 5.0 | 10.0 | 0.00 | 0.01 | 0.00 | 61 | 1017.1 |
| 20260509102306 | 64 | 99 | 2.0 | 7.0 | 0.00 | 0.01 | 0.00 | 63 | 1017.1 |
| 20260509101804 | 64 | 71 | 6.0 | 13.0 | 0.00 | 0.01 | 0.00 | 62 | 1017.1 |